📊 Raw Sensor Data

Showing records 47676 to 47700 of 85,089 total

ID Distance (ft) Battery V Battery A Int Temp (°F) Int Humid (%) Ext Temp (°F) Solar V RSSI SNR Time Stamp
37426 -- 3.84 0 83 40 78 5.10 -76 8 04/10/2025 01:00 PM
37425 -- 3.84 0 86 37 77 5.10 -76 9 04/10/2025 12:45 PM
37424 -- 3.84 0 82 38 77 5.10 -76 9 04/10/2025 12:30 PM
37423 -- 3.86 0 76 40 70 5.10 -77 8 04/10/2025 12:00 PM
37422 -- 3.84 0 76 40 71 5.10 -77 9 04/10/2025 11:45 AM
37421 15.7 4.04 0 73 40 69 5.10 -78 8 04/10/2025 11:30 AM
37420 -- 3.95 0 73 40 70 5.10 -78 8 04/10/2025 11:15 AM
37419 -- 3.84 0 73 40 69 5.10 -81 8 04/10/2025 11:00 AM
37418 -- 3.84 0 73 39 73 5.10 -73 9 04/10/2025 10:45 AM
37417 -- 3.85 0 70 40 68 5.10 -75 8 04/10/2025 10:31 AM
37416 -- 4.01 0 70 39 68 5.10 -74 9 04/10/2025 10:15 AM
37415 -- 3.86 0 68 39 67 5.10 -75 8 04/10/2025 10:00 AM
37414 -- 3.84 0 67 39 66 5.10 -73 8 04/10/2025 09:45 AM
37413 -- 4.06 0 67 37 69 5.10 -81 8 04/10/2025 09:30 AM
37412 -- 3.84 0 64 38 69 5.10 -78 9 04/10/2025 09:16 AM
37411 -- 3.84 0 63 37 65 5.10 -78 8 04/10/2025 09:00 AM
37410 -- 3.84 0 61 37 68 5.10 -78 8 04/10/2025 08:45 AM
37409 -- 3.84 0 58 38 69 5.10 -78 9 04/10/2025 08:30 AM
37408 15.8 3.85 0 56 38 67 5.10 -78 7 04/10/2025 08:15 AM
37407 15.7 3.85 9 54 38 66 5.10 -77 8 04/10/2025 08:00 AM
37406 15.6 3.85 10 51 39 59 5.10 -77 8 04/10/2025 07:45 AM
37405 15.6 3.92 45 49 40 56 4.50 -77 7 04/10/2025 07:30 AM
37404 15.6 3.83 15 47 40 54 4.50 -77 8 04/10/2025 07:15 AM
37403 15.5 3.78 0 46 41 47 4.50 -78 7 04/10/2025 07:00 AM
37402 -- 3.76 -9 46 40 49 4.50 -78 7 04/10/2025 06:45 AM